| time (UTC) | temp F | wind direction | speed MPH | gust MPH | rain 1hr in | rain 24hr in | rain mn in | humidity % | barometer mb |
| 20260905125034 | 64 | 247 | 0.0 | 0.0 | 0.00 | 0.00 | 0.00 | 48 | 1020.2 |
| 20260905124034 | 64 | 230 | 0.0 | 1.0 | 0.00 | 0.00 | 0.00 | 46 | 1020.2 |
| 20260905123133 | 65 | 202 | 0.0 | 0.0 | 0.00 | 0.00 | 0.00 | 42 | 1020.1 |
| 20260905122150 | 66 | 202 | 1.0 | 2.0 | 0.00 | 0.00 | 0.00 | 39 | 1019.9 |
| 20260905121233 | 64 | 178 | 4.0 | 7.0 | 0.00 | 0.00 | 0.00 | 39 | 1019.8 |
| 20260905121137 | 64 | 180 | 2.0 | 4.0 | 0.00 | 0.00 | 0.00 | 39 | 1019.7 |
| 20260905115332 | 67 | 180 | 1.0 | 2.0 | 0.00 | 0.00 | 0.00 | 31 | 1019.6 |
| 20260905114333 | 69 | 180 | 0.0 | 1.0 | 0.00 | 0.00 | 0.00 | 26 | 1019.8 |
| 20260905114234 | 69 | 180 | 0.0 | 0.0 | 0.00 | 0.00 | 0.00 | 26 | 1019.8 |
| 20260905113333 | 71 | 180 | 0.0 | 1.0 | 0.00 | 0.00 | 0.00 | 22 | 1019.8 |
| 20260905112335 | 72 | 185 | 2.0 | 6.0 | 0.00 | 0.00 | 0.00 | 20 | 1019.6 |
| 20260905111334 | 72 | 194 | 6.0 | 11.0 | 0.00 | 0.00 | 0.00 | 20 | 1019.5 |
| 20260905110334 | 72 | 202 | 4.0 | 6.0 | 0.00 | 0.00 | 0.00 | 19 | 1019.5 |
| 20260905105433 | 72 | 190 | 5.0 | 7.0 | 0.00 | 0.00 | 0.00 | 21 | 1019.4 |
| 20260905103435 | 73 | 193 | 7.0 | 10.0 | 0.00 | 0.00 | 0.00 | 20 | 1019.4 |
| 20260905102451 | 74 | 189 | 5.0 | 8.0 | 0.00 | 0.00 | 0.00 | 19 | 1019.3 |
| 20260905101434 | 74 | 192 | 8.0 | 11.0 | 0.00 | 0.00 | 0.00 | 20 | 1019.4 |
| 20260905100436 | 73 | 191 | 6.0 | 10.0 | 0.00 | 0.00 | 0.00 | 21 | 1019.4 |
| 20260905094434 | 74 | 189 | 8.0 | 15.0 | 0.00 | 0.00 | 0.00 | 22 | 1019.1 |
| 20260905093433 | 73 | 187 | 7.0 | 10.0 | 0.00 | 0.00 | 0.00 | 23 | 1018.9 |
| 20260905092449 | 72 | 194 | 4.0 | 7.0 | 0.00 | 0.00 | 0.00 | 28 | 1018.8 |
| 20260905091435 | 71 | 180 | 2.0 | 4.0 | 0.00 | 0.00 | 0.00 | 29 | 1019.0 |
| 20260905090434 | 70 | 192 | 7.0 | 10.0 | 0.00 | 0.00 | 0.00 | 37 | 1018.9 |
| 20260905085436 | 71 | 180 | 2.0 | 4.0 | 0.00 | 0.00 | 0.00 | 39 | 1018.8 |
| 20260905085334 | 72 | 180 | 1.0 | 2.0 | 0.00 | 0.00 | 0.00 | 38 | 1018.8 |
| 20260905084334 | 74 | 181 | 3.0 | 5.0 | 0.00 | 0.00 | 0.00 | 25 | 1018.7 |
| 20260905084235 | 74 | 173 | 5.0 | 9.0 | 0.00 | 0.00 | 0.00 | 26 | 1018.8 |
| 20260905083334 | 73 | 170 | 7.0 | 10.0 | 0.00 | 0.00 | 0.00 | 28 | 1018.5 |
| 20260905082433 | 73 | 186 | 4.0 | 9.0 | 0.00 | 0.00 | 0.00 | 29 | 1018.5 |
| 20260905081435 | 75 | 162 | 4.0 | 7.0 | 0.00 | 0.00 | 0.00 | 27 | 1018.4 |
| 20260905080435 | 76 | 190 | 7.0 | 11.0 | 0.00 | 0.00 | 0.00 | 24 | 1018.3 |
| 20260905075451 | 76 | 204 | 5.0 | 7.0 | 0.00 | 0.00 | 0.00 | 24 | 1018.3 |
| 20260905072635 | 76 | 204 | 6.0 | 9.0 | 0.00 | 0.00 | 0.00 | 23 | 1017.9 |
| 20260905071634 | 76 | 207 | 8.0 | 11.0 | 0.00 | 0.00 | 0.00 | 24 | 1017.8 |
| 20260905070633 | 76 | 212 | 8.0 | 13.0 | 0.00 | 0.00 | 0.00 | 25 | 1017.7 |
| 20260905070533 | 76 | 208 | 8.0 | 14.0 | 0.00 | 0.00 | 0.00 | 25 | 1017.7 |
| 20260905065533 | 76 | 227 | 8.0 | 13.0 | 0.00 | 0.00 | 0.00 | 25 | 1017.4 |
| 20260905064536 | 76 | 228 | 7.0 | 12.0 | 0.00 | 0.00 | 0.00 | 25 | 1017.2 |
| 20260905063533 | 76 | 227 | 5.0 | 8.0 | 0.00 | 0.00 | 0.00 | 26 | 1017.2 |
| 20260905062549 | 76 | 220 | 5.0 | 10.0 | 0.00 | 0.00 | 0.00 | 25 | 1017.1 |
| 20260905061634 | 76 | 212 | 5.0 | 9.0 | 0.00 | 0.00 | 0.00 | 25 | 1016.9 |
| 20260905055643 | 78 | 228 | 6.0 | 11.0 | 0.00 | 0.00 | 0.00 | 24 | 1016.6 |
| 20260905054701 | 77 | 211 | 6.0 | 11.0 | 0.00 | 0.00 | 0.00 | 23 | 1016.6 |
| 20260905052743 | 78 | 228 | 5.0 | 9.0 | 0.00 | 0.00 | 0.00 | 24 | 1016.6 |
| 20260905045744 | 79 | 229 | 8.0 | 13.0 | 0.00 | 0.00 | 0.00 | 22 | 1016.0 |
| 20260905043743 | 79 | 228 | 10.0 | 18.0 | 0.00 | 0.00 | 0.00 | 22 | 1016.0 |
| 20260905042743 | 79 | 210 | 7.0 | 11.0 | 0.00 | 0.00 | 0.00 | 21 | 1016.1 |
| 20260905041743 | 79 | 220 | 6.0 | 10.0 | 0.00 | 0.00 | 0.00 | 21 | 1016.1 |
| 20260905040745 | 80 | 230 | 7.0 | 10.0 | 0.00 | 0.00 | 0.00 | 19 | 1016.1 |
| 20260905033842 | 80 | 225 | 7.0 | 14.0 | 0.00 | 0.00 | 0.00 | 20 | 1015.9 |
| 20260905032902 | 79 | 228 | 9.0 | 14.0 | 0.00 | 0.00 | 0.00 | 20 | 1015.6 |
| 20260905031845 | 80 | 226 | 6.0 | 9.0 | 0.00 | 0.00 | 0.00 | 20 | 1015.6 |
| 20260905030942 | 80 | 228 | 7.0 | 9.0 | 0.00 | 0.00 | 0.00 | 19 | 1015.3 |
| 20260905025944 | 81 | 236 | 4.0 | 6.0 | 0.00 | 0.00 | 0.00 | 20 | 1015.4 |
| 20260905024944 | 81 | 223 | 7.0 | 11.0 | 0.00 | 0.00 | 0.00 | 21 | 1015.2 |
| 20260905024041 | 81 | 229 | 7.0 | 11.0 | 0.00 | 0.00 | 0.00 | 21 | 1014.9 |
| 20260905023058 | 82 | 218 | 6.0 | 10.0 | 0.00 | 0.00 | 0.00 | 20 | 1014.9 |
| 20260905022044 | 82 | 228 | 7.0 | 11.0 | 0.00 | 0.00 | 0.00 | 20 | 1014.8 |
| 20260905021058 | 82 | 226 | 6.0 | 8.0 | 0.00 | 0.00 | 0.00 | 20 | 1014.7 |
| 20260905020059 | 83 | 195 | 8.0 | 11.0 | 0.00 | 0.00 | 0.00 | 20 | 1014.7 |
| 20260905015142 | 83 | 196 | 7.0 | 11.0 | 0.00 | 0.00 | 0.00 | 19 | 1014.6 |
| 20260905014145 | 83 | 199 | 8.0 | 18.0 | 0.00 | 0.00 | 0.00 | 20 | 1014.5 |
| 20260905013144 | 84 | 203 | 6.0 | 10.0 | 0.00 | 0.00 | 0.00 | 20 | 1014.5 |
| 20260905013044 | 84 | 228 | 6.0 | 9.0 | 0.00 | 0.00 | 0.00 | 20 | 1014.5 |
| 20260905012142 | 84 | 196 | 9.0 | 18.0 | 0.00 | 0.00 | 0.00 | 20 | 1014.3 |
| 20260905011143 | 84 | 224 | 10.0 | 17.0 | 0.00 | 0.00 | 0.00 | 19 | 1014.5 |
| 20260905010142 | 84 | 210 | 9.0 | 15.0 | 0.00 | 0.00 | 0.00 | 19 | 1014.5 |
| 20260905005241 | 85 | 200 | 5.0 | 8.0 | 0.00 | 0.00 | 0.00 | 19 | 1014.5 |
| 20260905004243 | 85 | 228 | 8.0 | 14.0 | 0.00 | 0.00 | 0.00 | 19 | 1014.4 |
| 20260905002259 | 85 | 189 | 11.0 | 19.0 | 0.00 | 0.00 | 0.00 | 18 | 1014.5 |
| 20260905002144 | 85 | 197 | 8.0 | 17.0 | 0.00 | 0.00 | 0.00 | 18 | 1014.4 |
| 20260905001144 | 85 | 223 | 8.0 | 12.0 | 0.00 | 0.00 | 0.00 | 19 | 1014.4 |
| 20260905000241 | 86 | 228 | 9.0 | 13.0 | 0.00 | 0.00 | 0.00 | 18 | 1014.4 |
| 20260904235244 | 86 | 224 | 8.0 | 15.0 | 0.00 | 0.00 | 0.00 | 18 | 1014.4 |
| 20260904234342 | 86 | 232 | 10.0 | 16.0 | 0.00 | 0.00 | 0.00 | 18 | 1014.4 |
| 20260904233342 | 86 | 233 | 13.0 | 16.0 | 0.00 | 0.00 | 0.00 | 17 | 1014.4 |
| 20260904232344 | 87 | 195 | 6.0 | 14.0 | 0.00 | 0.00 | 0.00 | 17 | 1014.6 |
| 20260904225445 | 87 | 189 | 6.0 | 11.0 | 0.00 | 0.00 | 0.00 | 16 | 1014.5 |
| 20260904224442 | 87 | 165 | 5.0 | 8.0 | 0.00 | 0.00 | 0.00 | 16 | 1014.7 |
| 20260904223444 | 87 | 184 | 8.0 | 11.0 | 0.00 | 0.00 | 0.00 | 17 | 1014.8 |
| 20260904222444 | 87 | 230 | 8.0 | 12.0 | 0.00 | 0.00 | 0.00 | 17 | 1014.8 |
| 20260904221500 | 87 | 210 | 6.0 | 9.0 | 0.00 | 0.00 | 0.00 | 16 | 1015.0 |
| 20260904220542 | 87 | 224 | 5.0 | 11.0 | 0.00 | 0.00 | 0.00 | 16 | 1015.2 |
| 20260904215557 | 86 | 225 | 8.0 | 12.0 | 0.00 | 0.00 | 0.00 | 16 | 1015.3 |
| 20260904213544 | 86 | 196 | 9.0 | 12.0 | 0.00 | 0.00 | 0.00 | 15 | 1015.4 |
| 20260904211641 | 86 | 204 | 7.0 | 11.0 | 0.00 | 0.00 | 0.00 | 16 | 1015.7 |
| 20260904211541 | 86 | 201 | 6.0 | 10.0 | 0.00 | 0.00 | 0.00 | 16 | 1015.5 |
| 20260904210544 | 86 | 215 | 3.0 | 5.0 | 0.00 | 0.00 | 0.00 | 17 | 1015.9 |
| 20260904205642 | 85 | 222 | 5.0 | 11.0 | 0.00 | 0.00 | 0.00 | 15 | 1015.9 |
| 20260904204644 | 85 | 208 | 10.0 | 19.0 | 0.00 | 0.00 | 0.00 | 15 | 1015.7 |
| 20260904204544 | 85 | 221 | 11.0 | 18.0 | 0.00 | 0.00 | 0.00 | 15 | 1015.9 |
| 20260904203544 | 85 | 244 | 10.0 | 17.0 | 0.00 | 0.00 | 0.00 | 15 | 1015.9 |
| 20260904202542 | 84 | 215 | 6.0 | 10.0 | 0.00 | 0.00 | 0.00 | 17 | 1015.9 |
| 20260904201545 | 84 | 231 | 11.0 | 18.0 | 0.00 | 0.00 | 0.00 | 19 | 1016.0 |
| 20260904200542 | 82 | 106 | 7.0 | 11.0 | 0.00 | 0.00 | 0.00 | 21 | 1015.7 |
| 20260904195541 | 82 | 200 | 5.0 | 10.0 | 0.00 | 0.00 | 0.00 | 23 | 1016.6 |
| 20260904195445 | 82 | 171 | 11.0 | 21.0 | 0.00 | 0.00 | 0.00 | 24 | 1016.3 |
| 20260904194443 | 81 | 181 | 5.0 | 8.0 | 0.00 | 0.00 | 0.00 | 24 | 1016.5 |
| 20260904193444 | 81 | 188 | 3.0 | 7.0 | 0.00 | 0.00 | 0.00 | 25 | 1016.5 |
| 20260904192443 | 81 | 159 | 8.0 | 14.0 | 0.00 | 0.00 | 0.00 | 25 | 1016.7 |
| 20260904190544 | 79 | 132 | 6.0 | 12.0 | 0.00 | 0.00 | 0.00 | 28 | 1017.1 |
| 20260904185542 | 79 | 181 | 6.0 | 9.0 | 0.00 | 0.00 | 0.00 | 28 | 1017.2 |
| 20260904185444 | 79 | 160 | 9.0 | 14.0 | 0.00 | 0.00 | 0.00 | 29 | 1017.3 |
| 20260904184444 | 79 | 139 | 4.0 | 6.0 | 0.00 | 0.00 | 0.00 | 27 | 1017.5 |
| 20260904183459 | 78 | 160 | 9.0 | 16.0 | 0.00 | 0.00 | 0.00 | 26 | 1017.6 |
| 20260904182444 | 78 | 164 | 7.0 | 10.0 | 0.00 | 0.00 | 0.00 | 28 | 1017.8 |
| 20260904181442 | 78 | 164 | 7.0 | 12.0 | 0.00 | 0.00 | 0.00 | 28 | 1017.9 |
| 20260904175544 | 77 | 166 | 9.0 | 13.0 | 0.00 | 0.00 | 0.00 | 30 | 1017.9 |
| 20260904173545 | 75 | 133 | 6.0 | 9.0 | 0.00 | 0.00 | 0.00 | 31 | 1018.2 |
| 20260904171544 | 74 | 155 | 7.0 | 14.0 | 0.00 | 0.00 | 0.00 | 31 | 1018.2 |
| 20260904170544 | 74 | 155 | 10.0 | 16.0 | 0.00 | 0.00 | 0.00 | 29 | 1018.1 |
| 20260904165642 | 73 | 141 | 4.0 | 10.0 | 0.00 | 0.00 | 0.00 | 31 | 1018.0 |
| 20260904164643 | 72 | 165 | 5.0 | 10.0 | 0.00 | 0.00 | 0.00 | 33 | 1018.0 |
| 20260904163643 | 73 | 125 | 7.0 | 11.0 | 0.00 | 0.00 | 0.00 | 30 | 1018.2 |
| 20260904162644 | 73 | 157 | 3.0 | 7.0 | 0.00 | 0.00 | 0.00 | 29 | 1018.2 |
| 20260904161743 | 73 | 146 | 5.0 | 9.0 | 0.00 | 0.00 | 0.00 | 29 | 1018.1 |
| 20260904160743 | 73 | 166 | 9.0 | 14.0 | 0.00 | 0.00 | 0.00 | 28 | 1018.2 |
| 20260904155751 | 72 | 167 | 6.0 | 9.0 | 0.00 | 0.00 | 0.00 | 29 | 1018.2 |
| 20260904154842 | 72 | 188 | 4.0 | 5.0 | 0.00 | 0.00 | 0.00 | 29 | 1018.0 |
| 20260904153845 | 72 | 154 | 4.0 | 7.0 | 0.00 | 0.00 | 0.00 | 27 | 1018.0 |
| 20260904152843 | 72 | 166 | 8.0 | 12.0 | 0.00 | 0.00 | 0.00 | 28 | 1018.0 |
| 20260904150941 | 71 | 176 | 6.0 | 11.0 | 0.00 | 0.00 | 0.00 | 28 | 1018.0 |
| 20260904145943 | 70 | 162 | 2.0 | 7.0 | 0.00 | 0.00 | 0.00 | 31 | 1018.0 |
| 20260904144944 | 69 | 123 | 0.0 | 3.0 | 0.00 | 0.00 | 0.00 | 33 | 1018.2 |
| 20260904143943 | 67 | 176 | 2.0 | 3.0 | 0.00 | 0.00 | 0.00 | 43 | 1018.2 |
| 20260904142944 | 66 | 22 | 2.0 | 3.0 | 0.00 | 0.00 | 0.00 | 48 | 1017.9 |
| 20260904141002 | 63 | 337 | 0.0 | 0.0 | 0.00 | 0.00 | 0.00 | 54 | 1018.0 |
| 20260904140041 | 62 | 360 | 0.0 | 0.0 | 0.00 | 0.00 | 0.00 | 56 | 1017.8 |
| 20260904134143 | 60 | 360 | 0.0 | 0.0 | 0.00 | 0.00 | 0.00 | 49 | 1017.8 |
| 20260904133145 | 61 | 360 | 1.0 | 2.0 | 0.00 | 0.00 | 0.00 | 41 | 1017.4 |
| 20260904132141 | 61 | 315 | 1.0 | 2.0 | 0.00 | 0.00 | 0.00 | 35 | 1017.3 |
| 20260904131145 | 63 | 288 | 0.0 | 1.0 | 0.00 | 0.00 | 0.00 | 31 | 1017.3 |
| 20260904130159 | 64 | 180 | 0.0 | 2.0 | 0.00 | 0.00 | 0.00 | 29 | 1017.1 |